BEIDOU-3 M8 (C28)

Last updated on Wed Aug 26 2026 00:04:16 GMT+0000 (Coordinated Universal Time)

1 43108U 18003B 26237.02519413 -.00000032 00000+0 00000+0 0 9997 2 43108 54.2555 299.8914 0003911 259.8176 100.2171 1.86231329 58648
UTC large
Height (km)
Speed (km/s)
/
Latitude / Longitude
Inclination (degrees)
Orbital Period (minutes)
Azimuth
Elevation
Range (km)
Doppler Factor

Next 0 passes for location: London (51.5072 / 0.1276)

No passes found over London.
BEIDOU-3 M8 (C28)